| time (UTC) | temp C | wind direction | speed KPH | gust KPH | rain 1hr cm | rain 24hr cm | rain mn cm | humidity % | barometer mb |
| 20260509000552 | 12 | 298 | 0.0 | 3.2 | 0.00 | 0.00 | 0.00 | 28 | 1012.0 |
| 20260509000052 | 12 | 269 | 0.0 | 3.2 | 0.00 | 0.00 | 0.00 | 27 | 1012.0 |
| 20260508235552 | 12 | 265 | 0.0 | 3.2 | 0.00 | 0.00 | 0.00 | 26 | 1011.9 |
| 20260508235055 | 12 | 246 | 0.0 | 3.2 | 0.00 | 0.00 | 0.00 | 26 | 1011.8 |
| 20260508234552 | 12 | 160 | 0.0 | 1.6 | 0.00 | 0.00 | 0.00 | 26 | 1011.6 |
| 20260508234056 | 12 | 223 | 0.0 | 3.2 | 0.00 | 0.00 | 0.00 | 26 | 1011.5 |
| 20260508233557 | 12 | 215 | 0.0 | 6.4 | 0.00 | 0.00 | 0.00 | 26 | 1011.3 |
| 20260508232554 | 12 | 162 | 0.0 | 6.4 | 0.00 | 0.00 | 0.00 | 26 | 1011.4 |
| 20260508232053 | 12 | 241 | 0.0 | 6.4 | 0.00 | 0.00 | 0.00 | 27 | 1011.3 |
| 20260508231555 | 12 | 241 | 0.0 | 3.2 | 0.00 | 0.00 | 0.00 | 27 | 1011.3 |
| 20260508231052 | 12 | 252 | 0.0 | 1.6 | 0.00 | 0.00 | 0.00 | 28 | 1011.3 |
| 20260508230551 | 12 | 253 | 0.0 | 1.6 | 0.00 | 0.00 | 0.00 | 28 | 1011.2 |
| 20260508230055 | 12 | 253 | 0.0 | 1.6 | 0.00 | 0.00 | 0.00 | 28 | 1011.3 |
| 20260508225551 | 12 | 276 | 0.0 | 1.6 | 0.00 | 0.00 | 0.00 | 28 | 1011.4 |
| 20260508225052 | 12 | 276 | 0.0 | 3.2 | 0.00 | 0.00 | 0.00 | 27 | 1011.2 |
| 20260508224553 | 12 | 289 | 0.0 | 3.2 | 0.00 | 0.00 | 0.00 | 27 | 1011.2 |
| 20260508224051 | 13 | 276 | 0.0 | 3.2 | 0.00 | 0.00 | 0.00 | 26 | 1011.2 |
| 20260508223551 | 13 | 252 | 0.0 | 4.8 | 0.00 | 0.00 | 0.00 | 25 | 1011.3 |
| 20260508222550 | 13 | 252 | 0.0 | 6.4 | 0.00 | 0.00 | 0.00 | 25 | 1011.3 |
| 20260508222051 | 13 | 260 | 0.0 | 9.7 | 0.00 | 0.00 | 0.00 | 25 | 1011.2 |
| 20260508221552 | 13 | 219 | 0.0 | 4.8 | 0.00 | 0.00 | 0.00 | 25 | 1011.2 |
| 20260508221050 | 13 | 198 | 0.0 | 4.8 | 0.00 | 0.00 | 0.00 | 26 | 1011.2 |
| 20260508220550 | 13 | 213 | 0.0 | 3.2 | 0.00 | 0.00 | 0.00 | 25 | 1011.2 |
| 20260508220050 | 13 | 226 | 0.0 | 6.4 | 0.00 | 0.00 | 0.00 | 25 | 1011.2 |
| 20260508215550 | 13 | 265 | 0.0 | 6.4 | 0.00 | 0.00 | 0.00 | 25 | 1011.2 |
| 20260508215050 | 13 | 257 | 0.0 | 6.4 | 0.00 | 0.00 | 0.00 | 25 | 1011.1 |
| 20260508214602 | 13 | 259 | 1.6 | 6.4 | 0.00 | 0.00 | 0.00 | 25 | 1011.0 |
| 20260508214050 | 13 | 273 | 0.0 | 3.2 | 0.00 | 0.00 | 0.00 | 24 | 1011.1 |
| 20260508213549 | 14 | 276 | 0.0 | 6.4 | 0.00 | 0.00 | 0.00 | 23 | 1010.9 |
| 20260508212550 | 14 | 255 | 0.0 | 6.4 | 0.00 | 0.00 | 0.00 | 22 | 1010.9 |
| 20260508212050 | 15 | 149 | 1.6 | 8.0 | 0.00 | 0.00 | 0.00 | 21 | 1010.9 |
| 20260508211549 | 15 | 236 | 3.2 | 9.7 | 0.00 | 0.00 | 0.00 | 20 | 1010.9 |
| 20260508211049 | 15 | 250 | 3.2 | 9.7 | 0.00 | 0.00 | 0.00 | 19 | 1010.9 |
| 20260508210553 | 15 | 246 | 1.6 | 9.7 | 0.00 | 0.00 | 0.00 | 19 | 1010.9 |
| 20260508210053 | 15 | 281 | 1.6 | 14.5 | 0.00 | 0.00 | 0.00 | 19 | 1011.0 |
| 20260508205551 | 16 | 248 | 3.2 | 16.1 | 0.00 | 0.00 | 0.00 | 18 | 1010.8 |
| 20260508205049 | 16 | 277 | 1.6 | 16.1 | 0.00 | 0.00 | 0.00 | 17 | 1010.8 |
| 20260508204551 | 16 | 239 | 1.6 | 17.7 | 0.00 | 0.00 | 0.00 | 17 | 1010.7 |
| 20260508204048 | 16 | 224 | 3.2 | 12.9 | 0.00 | 0.00 | 0.00 | 17 | 1010.7 |
| 20260508203552 | 16 | 201 | 3.2 | 16.1 | 0.00 | 0.00 | 0.00 | 16 | 1010.7 |
| 20260508202550 | 16 | 258 | 9.7 | 16.1 | 0.00 | 0.00 | 0.00 | 16 | 1010.8 |
| 20260508202049 | 16 | 153 | 4.8 | 17.7 | 0.00 | 0.00 | 0.00 | 17 | 1010.8 |
| 20260508201549 | 16 | 255 | 9.7 | 17.7 | 0.00 | 0.00 | 0.00 | 16 | 1010.7 |
| 20260508201050 | 16 | 254 | 8.0 | 19.3 | 0.00 | 0.00 | 0.00 | 16 | 1010.7 |
| 20260508200549 | 16 | 266 | 3.2 | 19.3 | 0.00 | 0.00 | 0.00 | 17 | 1010.7 |
| 20260508200049 | 16 | 217 | 6.4 | 17.7 | 0.00 | 0.00 | 0.00 | 16 | 1010.7 |
| 20260508195548 | 16 | 261 | 6.4 | 20.9 | 0.00 | 0.00 | 0.00 | 16 | 1010.7 |
| 20260508195048 | 16 | 299 | 6.4 | 20.9 | 0.00 | 0.00 | 0.00 | 16 | 1010.6 |
| 20260508194548 | 16 | 255 | 8.0 | 17.7 | 0.00 | 0.00 | 0.00 | 15 | 1010.6 |
| 20260508194047 | 16 | 262 | 8.0 | 27.4 | 0.00 | 0.00 | 0.00 | 15 | 1010.5 |
| 20260508193547 | 16 | 264 | 8.0 | 29.0 | 0.00 | 0.00 | 0.00 | 14 | 1010.6 |
| 20260508192546 | 16 | 283 | 8.0 | 29.0 | 0.00 | 0.00 | 0.00 | 14 | 1010.5 |
| 20260508192047 | 16 | 236 | 4.8 | 22.5 | 0.00 | 0.00 | 0.00 | 15 | 1010.6 |
| 20260508191551 | 16 | 269 | 6.4 | 24.1 | 0.00 | 0.00 | 0.00 | 15 | 1010.7 |
| 20260508191047 | 16 | 244 | 9.7 | 24.1 | 0.00 | 0.00 | 0.00 | 14 | 1010.8 |
| 20260508190545 | 16 | 259 | 9.7 | 22.5 | 0.00 | 0.00 | 0.00 | 14 | 1011.0 |
| 20260508185548 | 16 | 262 | 9.7 | 17.7 | 0.00 | 0.00 | 0.00 | 14 | 1011.3 |
| 20260508185044 | 16 | 141 | 8.0 | 17.7 | 0.00 | 0.00 | 0.00 | 14 | 1011.2 |
| 20260508184543 | 16 | 151 | 6.4 | 30.6 | 0.00 | 0.00 | 0.00 | 14 | 1011.3 |
| 20260508184043 | 16 | 243 | 4.8 | 25.7 | 0.00 | 0.00 | 0.00 | 14 | 1011.2 |
| 20260508183542 | 16 | 288 | 9.7 | 24.1 | 0.00 | 0.00 | 0.00 | 13 | 1011.4 |
| 20260508182543 | 16 | 255 | 9.7 | 19.3 | 0.00 | 0.00 | 0.00 | 13 | 1011.5 |
| 20260508182043 | 16 | 252 | 8.0 | 24.1 | 0.00 | 0.00 | 0.00 | 13 | 1011.5 |
| 20260508181542 | 16 | 243 | 12.9 | 24.1 | 0.00 | 0.00 | 0.00 | 12 | 1011.7 |
| 20260508181045 | 16 | 239 | 8.0 | 25.7 | 0.00 | 0.00 | 0.00 | 13 | 1011.5 |
| 20260508180545 | 16 | 251 | 8.0 | 25.7 | 0.00 | 0.00 | 0.00 | 13 | 1011.7 |
| 20260508180056 | 16 | 311 | 8.0 | 27.4 | 0.00 | 0.00 | 0.00 | 13 | 1011.7 |
| 20260508175542 | 16 | 257 | 11.3 | 27.4 | 0.00 | 0.00 | 0.00 | 12 | 1011.8 |
| 20260508175042 | 16 | 262 | 6.4 | 24.1 | 0.00 | 0.00 | 0.00 | 13 | 1012.0 |
| 20260508174553 | 16 | 248 | 6.4 | 24.1 | 0.00 | 0.00 | 0.00 | 14 | 1011.9 |
| 20260508174039 | 15 | 263 | 6.4 | 20.9 | 0.00 | 0.00 | 0.00 | 15 | 1012.0 |
| 20260508173539 | 15 | 293 | 12.9 | 24.1 | 0.00 | 0.00 | 0.00 | 15 | 1012.0 |
| 20260508172538 | 15 | 287 | 6.4 | 20.9 | 0.00 | 0.00 | 0.00 | 15 | 1012.2 |
| 20260508172039 | 15 | 241 | 6.4 | 29.0 | 0.00 | 0.00 | 0.00 | 16 | 1012.4 |
| 20260508171536 | 15 | 224 | 8.0 | 25.7 | 0.00 | 0.00 | 0.00 | 16 | 1012.5 |
| 20260508171035 | 15 | 267 | 11.3 | 25.7 | 0.00 | 0.00 | 0.00 | 17 | 1012.6 |
| 20260508170535 | 15 | 250 | 9.7 | 25.7 | 0.00 | 0.00 | 0.00 | 18 | 1012.6 |
| 20260508170038 | 15 | 276 | 9.7 | 24.1 | 0.00 | 0.00 | 0.00 | 18 | 1012.7 |
| 20260508165535 | 15 | 224 | 11.3 | 22.5 | 0.00 | 0.00 | 0.00 | 18 | 1012.8 |
| 20260508165034 | 15 | 150 | 9.7 | 22.5 | 0.00 | 0.00 | 0.00 | 18 | 1013.0 |
| 20260508164544 | 15 | 285 | 8.0 | 29.0 | 0.00 | 0.00 | 0.00 | 18 | 1013.1 |
| 20260508164035 | 14 | 227 | 8.0 | 29.0 | 0.00 | 0.00 | 0.00 | 18 | 1013.3 |
| 20260508163537 | 15 | 168 | 11.3 | 27.4 | 0.00 | 0.00 | 0.00 | 18 | 1013.2 |
| 20260508162515 | 15 | 272 | 4.8 | 19.3 | 0.00 | 0.00 | 0.00 | 19 | 1013.3 |
| 20260508162014 | 15 | 256 | 6.4 | 29.0 | 0.00 | 0.00 | 0.00 | 18 | 1013.3 |
| 20260508161513 | 14 | 233 | 6.4 | 29.0 | 0.00 | 0.00 | 0.00 | 18 | 1013.4 |
| 20260508161012 | 14 | 161 | 6.4 | 19.3 | 0.00 | 0.00 | 0.00 | 18 | 1013.6 |
| 20260508160510 | 14 | 187 | 6.4 | 27.4 | 0.00 | 0.00 | 0.00 | 19 | 1013.5 |
| 20260508160036 | 13 | 221 | 12.9 | 27.4 | 0.00 | 0.23 | 0.00 | 19 | 1013.7 |
| 20260508155503 | 13 | 222 | 9.7 | 22.5 | 0.00 | 0.23 | 0.00 | 19 | 1013.8 |
| 20260508155003 | 13 | 284 | 8.0 | 25.7 | 0.00 | 0.23 | 0.00 | 20 | 1013.8 |
| 20260508154502 | 13 | 267 | 11.3 | 25.7 | 0.00 | 0.23 | 0.00 | 20 | 1013.9 |
| 20260508154003 | 13 | 153 | 8.0 | 27.4 | 0.00 | 0.23 | 0.00 | 21 | 1013.9 |
| 20260508153503 | 13 | 271 | 11.3 | 27.4 | 0.00 | 0.23 | 0.00 | 20 | 1013.9 |
| 20260508153004 | 13 | 269 | 11.3 | 24.1 | 0.00 | 0.23 | 0.00 | 20 | 1014.0 |
| 20260508152502 | 13 | 240 | 9.7 | 25.7 | 0.00 | 0.23 | 0.00 | 21 | 1014.0 |
| 20260508152100 | 13 | 258 | 11.3 | 25.7 | 0.00 | 0.23 | 0.00 | 21 | 1014.0 |
| 20260508152003 | 13 | 215 | 11.3 | 24.1 | 0.00 | 0.23 | 0.00 | 21 | 1014.1 |
| 20260508151602 | 13 | 182 | 9.7 | 24.1 | 0.00 | 0.23 | 0.00 | 22 | 1014.1 |
| 20260508151059 | 13 | 179 | 6.4 | 24.1 | 0.00 | 0.23 | 0.00 | 23 | 1014.3 |
| 20260508150557 | 13 | 246 | 12.9 | 29.0 | 0.00 | 0.23 | 0.00 | 23 | 1014.4 |
| 20260508150057 | 12 | 175 | 8.0 | 30.6 | 0.00 | 0.25 | 0.00 | 23 | 1014.5 |
| 20260508145556 | 12 | 244 | 9.7 | 30.6 | 0.00 | 0.25 | 0.00 | 23 | 1014.5 |
| 20260508145056 | 12 | 251 | 9.7 | 22.5 | 0.00 | 0.25 | 0.00 | 23 | 1014.5 |
| 20260508144559 | 12 | 291 | 9.7 | 20.9 | 0.00 | 0.25 | 0.00 | 24 | 1014.6 |
| 20260508144054 | 12 | 158 | 9.7 | 25.7 | 0.00 | 0.25 | 0.00 | 24 | 1014.7 |
| 20260508143554 | 12 | 255 | 4.8 | 27.4 | 0.00 | 0.25 | 0.00 | 26 | 1014.6 |
| 20260508143057 | 12 | 326 | 8.0 | 27.4 | 0.00 | 0.25 | 0.00 | 26 | 1014.6 |
| 20260508142553 | 12 | 205 | 8.0 | 32.2 | 0.00 | 0.25 | 0.00 | 25 | 1014.8 |
| 20260508142050 | 12 | 272 | 9.7 | 32.2 | 0.00 | 0.25 | 0.00 | 26 | 1014.9 |
| 20260508141601 | 12 | 220 | 8.0 | 25.7 | 0.00 | 0.25 | 0.00 | 26 | 1014.9 |
| 20260508141049 | 12 | 283 | 9.7 | 25.7 | 0.00 | 0.25 | 0.00 | 26 | 1014.8 |
| 20260508140548 | 12 | 252 | 11.3 | 20.9 | 0.00 | 0.25 | 0.00 | 26 | 1014.9 |
| 20260508140047 | 11 | 255 | 8.0 | 25.7 | 0.00 | 0.36 | 0.00 | 27 | 1015.0 |
| 20260508135548 | 11 | 278 | 6.4 | 25.7 | 0.00 | 0.36 | 0.00 | 28 | 1015.0 |
| 20260508135048 | 11 | 248 | 8.0 | 25.7 | 0.00 | 0.36 | 0.00 | 28 | 1014.9 |
| 20260508134550 | 11 | 262 | 9.7 | 27.4 | 0.00 | 0.36 | 0.00 | 28 | 1015.1 |
| 20260508134045 | 11 | 231 | 9.7 | 27.4 | 0.00 | 0.36 | 0.00 | 28 | 1014.9 |
| 20260508133544 | 11 | 150 | 6.4 | 29.0 | 0.00 | 0.36 | 0.00 | 29 | 1014.9 |
| 20260508133201 | 11 | 248 | 9.7 | 29.0 | 0.00 | 0.36 | 0.00 | 28 | 1014.9 |
| 20260508132541 | 11 | 229 | 8.0 | 32.2 | 0.00 | 0.36 | 0.00 | 30 | 1014.8 |
| 20260508132040 | 11 | 226 | 8.0 | 32.2 | 0.00 | 0.36 | 0.00 | 32 | 1014.9 |
| 20260508131546 | 10 | 257 | 6.4 | 20.9 | 0.00 | 0.36 | 0.00 | 32 | 1014.7 |
| 20260508131041 | 10 | 282 | 6.4 | 20.9 | 0.00 | 0.36 | 0.00 | 32 | 1014.8 |
| 20260508130540 | 10 | 232 | 6.4 | 17.7 | 0.00 | 0.36 | 0.00 | 32 | 1014.8 |
| 20260508130040 | 10 | 204 | 3.2 | 22.5 | 0.00 | 0.36 | 0.00 | 34 | 1014.6 |
| 20260508125537 | 10 | 258 | 3.2 | 22.5 | 0.00 | 0.36 | 0.00 | 34 | 1014.6 |
| 20260508125035 | 10 | 262 | 6.4 | 16.1 | 0.00 | 0.36 | 0.00 | 35 | 1014.5 |
| 20260508124538 | 10 | 225 | 3.2 | 19.3 | 0.00 | 0.36 | 0.00 | 36 | 1014.5 |
| 20260508124036 | 10 | 209 | 4.8 | 17.7 | 0.00 | 0.36 | 0.00 | 36 | 1014.6 |
| 20260508123534 | 10 | 261 | 3.2 | 17.7 | 0.00 | 0.36 | 0.00 | 37 | 1014.7 |
| 20260508123034 | 9 | 278 | 3.2 | 17.7 | 0.00 | 0.36 | 0.00 | 37 | 1014.6 |
| 20260508122534 | 9 | 256 | 3.2 | 14.5 | 0.00 | 0.36 | 0.00 | 38 | 1014.6 |
| 20260508122033 | 9 | 242 | 4.8 | 11.3 | 0.00 | 0.36 | 0.00 | 37 | 1014.6 |
| 20260508121533 | 8 | 164 | 1.6 | 19.3 | 0.00 | 0.36 | 0.00 | 38 | 1014.5 |
| 20260508121031 | 8 | 254 | 4.8 | 19.3 | 0.00 | 0.36 | 0.00 | 38 | 1014.5 |
| 20260508120531 | 8 | 156 | 4.8 | 17.7 | 0.00 | 0.36 | 0.00 | 40 | 1014.4 |
| 20260508120030 | 8 | 276 | 6.4 | 14.5 | 0.00 | 0.36 | 0.00 | 40 | 1014.3 |
| 20260508115529 | 8 | 239 | 4.8 | 14.5 | 0.00 | 0.36 | 0.00 | 41 | 1014.3 |
| 20260508115028 | 8 | 269 | 3.2 | 14.5 | 0.00 | 0.36 | 0.00 | 41 | 1014.3 |
| 20260508114527 | 7 | 248 | 8.0 | 14.5 | 0.00 | 0.36 | 0.00 | 40 | 1014.1 |
| 20260508114027 | 7 | 218 | 4.8 | 14.5 | 0.00 | 0.36 | 0.00 | 41 | 1014.0 |
| 20260508113529 | 7 | 220 | 6.4 | 14.5 | 0.00 | 0.36 | 0.00 | 40 | 1014.0 |
| 20260508113026 | 7 | 256 | 3.2 | 14.5 | 0.00 | 0.36 | 0.00 | 40 | 1014.0 |
| 20260508112527 | 7 | 264 | 3.2 | 14.5 | 0.00 | 0.36 | 0.00 | 40 | 1014.0 |
| 20260508112025 | 7 | 232 | 4.8 | 14.5 | 0.00 | 0.36 | 0.00 | 39 | 1014.1 |
| 20260508111523 | 7 | 278 | 8.0 | 14.5 | 0.00 | 0.36 | 0.00 | 39 | 1013.9 |
| 20260508111024 | 7 | 182 | 6.4 | 19.3 | 0.00 | 0.36 | 0.00 | 39 | 1013.8 |
| 20260508110520 | 7 | 248 | 3.2 | 12.9 | 0.00 | 0.36 | 0.00 | 39 | 1013.7 |
| 20260508110020 | 7 | 284 | 0.0 | 17.7 | 0.00 | 0.36 | 0.00 | 38 | 1013.4 |
| 20260508105521 | 7 | 158 | 1.6 | 17.7 | 0.00 | 0.36 | 0.00 | 38 | 1013.3 |
| 20260508105021 | 8 | 230 | 4.8 | 19.3 | 0.00 | 0.36 | 0.00 | 37 | 1013.0 |
| 20260508104519 | 8 | 175 | 8.0 | 19.3 | 0.00 | 0.36 | 0.00 | 37 | 1013.1 |
| 20260508104019 | 8 | 253 | 6.4 | 20.9 | 0.00 | 0.36 | 0.00 | 37 | 1013.0 |
| 20260508103517 | 8 | 142 | 3.2 | 16.1 | 0.00 | 0.36 | 0.00 | 38 | 1012.9 |
| 20260508103021 | 8 | 295 | 3.2 | 17.7 | 0.00 | 0.36 | 0.00 | 38 | 1012.8 |
| 20260508102518 | 8 | 165 | 6.4 | 24.1 | 0.00 | 0.36 | 0.00 | 37 | 1012.7 |
| 20260508102014 | 8 | 257 | 3.2 | 20.9 | 0.00 | 0.36 | 0.00 | 37 | 1012.8 |
| 20260508101515 | 8 | 232 | 4.8 | 22.5 | 0.00 | 0.36 | 0.00 | 37 | 1012.6 |
| 20260508101013 | 8 | 217 | 4.8 | 22.5 | 0.00 | 0.36 | 0.00 | 37 | 1012.3 |
| 20260508100512 | 8 | 168 | 6.4 | 19.3 | 0.00 | 0.36 | 0.00 | 37 | 1012.3 |
| 20260508100010 | 8 | 234 | 8.0 | 19.3 | 0.00 | 0.36 | 0.00 | 38 | 1012.1 |
| 20260508095512 | 8 | 185 | 8.0 | 19.3 | 0.00 | 0.36 | 0.00 | 38 | 1012.0 |
| 20260508095008 | 8 | 6 | 6.4 | 22.5 | 0.00 | 0.36 | 0.00 | 38 | 1012.0 |
| 20260508094509 | 8 | 148 | 4.8 | 22.5 | 0.00 | 0.36 | 0.00 | 38 | 1011.8 |
| 20260508094009 | 8 | 216 | 8.0 | 20.9 | 0.00 | 0.36 | 0.00 | 38 | 1012.0 |
| 20260508093506 | 8 | 246 | 8.0 | 24.1 | 0.00 | 0.36 | 0.00 | 38 | 1011.8 |
| 20260508093007 | 8 | 246 | 9.7 | 24.1 | 0.00 | 0.36 | 0.00 | 38 | 1011.8 |
| 20260508092505 | 8 | 196 | 3.2 | 24.1 | 0.00 | 0.36 | 0.00 | 38 | 1011.8 |
| 20260508092007 | 8 | 266 | 9.7 | 22.5 | 0.00 | 0.36 | 0.00 | 38 | 1011.7 |
| 20260508091510 | 8 | 205 | 11.3 | 22.5 | 0.00 | 0.36 | 0.00 | 38 | 1011.6 |
| 20260508091003 | 8 | 201 | 11.3 | 22.5 | 0.00 | 0.36 | 0.00 | 38 | 1011.5 |
| 20260508090502 | 8 | 191 | 8.0 | 25.7 | 0.00 | 0.36 | 0.00 | 38 | 1011.5 |
| 20260508090008 | 8 | 243 | 8.0 | 30.6 | 0.00 | 0.64 | 0.00 | 37 | 1011.4 |
| 20260508085507 | 8 | 193 | 8.0 | 30.6 | 0.00 | 0.64 | 0.00 | 37 | 1011.3 |
| 20260508085003 | 8 | 198 | 9.7 | 22.5 | 0.00 | 0.64 | 0.00 | 38 | 1011.3 |
| 20260508084503 | 8 | 253 | 8.0 | 25.7 | 0.00 | 0.64 | 0.00 | 38 | 1011.2 |
| 20260508084002 | 8 | 180 | 8.0 | 25.7 | 0.00 | 0.64 | 0.00 | 38 | 1011.2 |
| 20260508083503 | 8 | 183 | 8.0 | 24.1 | 0.00 | 0.64 | 0.00 | 37 | 1011.1 |
| 20260508083002 | 8 | 213 | 9.7 | 19.3 | 0.00 | 0.64 | 0.00 | 37 | 1010.9 |
| 20260508082505 | 8 | 163 | 11.3 | 20.9 | 0.00 | 0.64 | 0.00 | 37 | 1010.9 |
| 20260508082004 | 8 | 243 | 6.4 | 25.7 | 0.00 | 0.64 | 0.00 | 38 | 1011.0 |
| 20260508081504 | 8 | 266 | 9.7 | 25.7 | 0.00 | 0.64 | 0.00 | 39 | 1011.0 |
| 20260508081101 | 8 | 164 | 8.0 | 22.5 | 0.00 | 0.64 | 0.00 | 39 | 1010.9 |
| 20260508080500 | 8 | 300 | 9.7 | 30.6 | 0.00 | 0.64 | 0.00 | 40 | 1010.9 |
| 20260508080106 | 8 | 146 | 4.8 | 20.9 | 0.00 | 0.66 | 0.00 | 41 | 1010.7 |
| 20260508075058 | 8 | 177 | 9.7 | 20.9 | 0.00 | 0.66 | 0.00 | 40 | 1010.6 |
| 20260508074558 | 8 | 156 | 9.7 | 22.5 | 0.00 | 0.66 | 0.00 | 39 | 1010.5 |
| 20260508074058 | 8 | 233 | 8.0 | 27.4 | 0.00 | 0.66 | 0.00 | 39 | 1010.4 |
| 20260508073556 | 8 | 174 | 8.0 | 25.7 | 0.00 | 0.66 | 0.00 | 39 | 1010.4 |
| 20260508073055 | 8 | 213 | 11.3 | 25.7 | 0.00 | 0.66 | 0.00 | 39 | 1010.4 |
| 20260508072554 | 8 | 153 | 9.7 | 27.4 | 0.00 | 0.66 | 0.00 | 38 | 1010.6 |
| 20260508072053 | 8 | 212 | 8.0 | 27.4 | 0.00 | 0.66 | 0.00 | 38 | 1010.6 |
| 20260508071552 | 8 | 200 | 12.9 | 27.4 | 0.00 | 0.66 | 0.00 | 37 | 1010.6 |
| 20260508071052 | 8 | 172 | 11.3 | 24.1 | 0.00 | 0.66 | 0.00 | 38 | 1010.6 |
| 20260508070551 | 9 | 179 | 9.7 | 24.1 | 0.00 | 0.66 | 0.00 | 37 | 1010.4 |
| 20260508070052 | 9 | 253 | 11.3 | 35.4 | 0.00 | 0.66 | 0.00 | 37 | 1010.3 |
| 20260508065049 | 9 | 168 | 14.5 | 29.0 | 0.00 | 0.66 | 0.00 | 37 | 1010.1 |
| 20260508064548 | 9 | 169 | 11.3 | 24.1 | 0.00 | 0.66 | 0.00 | 36 | 1010.2 |
| 20260508064048 | 9 | 231 | 8.0 | 30.6 | 0.00 | 0.66 | 0.00 | 36 | 1010.2 |
| 20260508063548 | 9 | 127 | 8.0 | 24.1 | 0.00 | 0.66 | 0.00 | 36 | 1010.3 |
| 20260508063100 | 9 | 297 | 9.7 | 24.1 | 0.00 | 0.66 | 0.00 | 37 | 1010.4 |
| 20260508062551 | 9 | 177 | 8.0 | 25.7 | 0.00 | 0.66 | 0.00 | 37 | 1010.4 |
| 20260508062516 | 9 | 168 | 8.0 | 25.7 | 0.00 | 0.66 | 0.00 | 37 | 1010.3 |
| 20260508062045 | 9 | 201 | 8.0 | 25.7 | 0.00 | 0.66 | 0.00 | 37 | 1010.4 |
| 20260508061548 | 9 | 177 | 8.0 | 22.5 | 0.00 | 0.66 | 0.00 | 37 | 1010.5 |
| 20260508061045 | 8 | 134 | 8.0 | 19.3 | 0.00 | 0.66 | 0.00 | 38 | 1010.5 |
| 20260508060544 | 8 | 181 | 6.4 | 17.7 | 0.00 | 0.66 | 0.00 | 39 | 1010.5 |
| 20260508060045 | 8 | 218 | 6.4 | 19.3 | 0.00 | 0.66 | 0.00 | 40 | 1010.6 |
| 20260508055044 | 8 | 227 | 8.0 | 19.3 | 0.00 | 0.66 | 0.00 | 40 | 1010.9 |
| 20260508054544 | 8 | 164 | 1.6 | 14.5 | 0.00 | 0.66 | 0.00 | 41 | 1010.8 |
| 20260508054042 | 8 | 271 | 4.8 | 16.1 | 0.00 | 0.66 | 0.00 | 41 | 1010.9 |
| 20260508053543 | 8 | 265 | 4.8 | 16.1 | 0.00 | 0.66 | 0.00 | 41 | 1011.0 |
| 20260508053042 | 8 | 204 | 3.2 | 14.5 | 0.00 | 0.66 | 0.00 | 41 | 1011.0 |
| 20260508052541 | 8 | 286 | 4.8 | 12.9 | 0.00 | 0.66 | 0.00 | 41 | 1011.1 |
| 20260508052040 | 8 | 259 | 6.4 | 12.9 | 0.00 | 0.66 | 0.00 | 41 | 1011.3 |
| 20260508051542 | 8 | 253 | 1.6 | 17.7 | 0.00 | 0.66 | 0.00 | 41 | 1011.3 |
| 20260508051042 | 8 | 249 | 4.8 | 17.7 | 0.00 | 0.66 | 0.00 | 41 | 1011.4 |
| 20260508050540 | 8 | 208 | 3.2 | 14.5 | 0.00 | 0.66 | 0.00 | 41 | 1011.2 |
| 20260508050042 | 8 | 237 | 3.2 | 16.1 | 0.00 | 0.66 | 0.00 | 42 | 1011.3 |
| 20260508045037 | 8 | 274 | 6.4 | 14.5 | 0.00 | 0.66 | 0.00 | 41 | 1011.3 |
| 20260508044537 | 8 | 280 | 6.4 | 14.5 | 0.00 | 0.66 | 0.00 | 42 | 1011.2 |
| 20260508044040 | 8 | 281 | 6.4 | 14.5 | 0.00 | 0.66 | 0.00 | 43 | 1011.0 |
| 20260508043535 | 8 | 269 | 3.2 | 16.1 | 0.00 | 0.66 | 0.00 | 43 | 1011.2 |
| 20260508043052 | 8 | 262 | 3.2 | 11.3 | 0.00 | 0.66 | 0.00 | 43 | 1011.0 |
| 20260508042533 | 8 | 293 | 4.8 | 11.3 | 0.00 | 0.66 | 0.00 | 43 | 1010.9 |
| 20260508042035 | 9 | 281 | 1.6 | 8.0 | 0.00 | 0.66 | 0.00 | 42 | 1010.7 |
| 20260508041536 | 9 | 277 | 0.0 | 9.7 | 0.00 | 0.66 | 0.00 | 42 | 1010.4 |
| 20260508041032 | 9 | 260 | 3.2 | 9.7 | 0.00 | 0.66 | 0.00 | 41 | 1010.6 |
| 20260508040531 | 9 | 262 | 3.2 | 9.7 | 0.00 | 0.66 | 0.00 | 41 | 1010.5 |
| 20260508040036 | 10 | 224 | 3.2 | 9.7 | 0.00 | 0.66 | 0.00 | 40 | 1010.6 |
| 20260508035030 | 9 | 186 | 3.2 | 9.7 | 0.00 | 0.66 | 0.00 | 41 | 1010.5 |
| 20260508034532 | 9 | 274 | 3.2 | 12.9 | 0.00 | 0.66 | 0.00 | 41 | 1010.4 |
| 20260508034029 | 9 | 279 | 4.8 | 12.9 | 0.00 | 0.66 | 0.00 | 41 | 1010.3 |
| 20260508033528 | 9 | 295 | 3.2 | 11.3 | 0.00 | 0.66 | 0.00 | 42 | 1010.2 |
| 20260508033028 | 9 | 276 | 3.2 | 11.3 | 0.00 | 0.66 | 0.00 | 42 | 1010.2 |
| 20260508032530 | 9 | 248 | 3.2 | 11.3 | 0.00 | 0.66 | 0.00 | 43 | 1010.4 |
| 20260508032026 | 9 | 293 | 4.8 | 11.3 | 0.00 | 0.66 | 0.00 | 43 | 1010.4 |
| 20260508031524 | 9 | 267 | 3.2 | 11.3 | 0.00 | 0.66 | 0.00 | 43 | 1010.4 |
| 20260508031024 | 9 | 247 | 1.6 | 11.3 | 0.00 | 0.66 | 0.00 | 43 | 1010.4 |
| 20260508030523 | 9 | 255 | 1.6 | 11.3 | 0.00 | 0.66 | 0.00 | 43 | 1010.6 |
| 20260508030026 | 9 | 272 | 4.8 | 11.3 | 0.00 | 0.66 | 0.66 | 43 | 1010.5 |
| 20260508025025 | 10 | 260 | 3.2 | 12.9 | 0.00 | 0.66 | 0.66 | 42 | 1010.3 |
| 20260508024521 | 10 | 256 | 6.4 | 14.5 | 0.00 | 0.66 | 0.66 | 41 | 1010.2 |
| 20260508024020 | 10 | 239 | 4.8 | 14.5 | 0.00 | 0.66 | 0.66 | 41 | 1009.8 |
| 20260508023520 | 10 | 271 | 3.2 | 9.7 | 0.00 | 0.66 | 0.66 | 41 | 1009.6 |
| 20260508023018 | 10 | 224 | 1.6 | 14.5 | 0.00 | 0.66 | 0.66 | 41 | 1009.9 |
| 20260508022518 | 10 | 264 | 3.2 | 14.5 | 0.00 | 0.66 | 0.66 | 41 | 1010.1 |
| 20260508022019 | 10 | 262 | 1.6 | 16.1 | 0.00 | 0.66 | 0.66 | 41 | 1010.3 |
| 20260508021617 | 10 | 224 | 4.8 | 16.1 | 0.00 | 0.66 | 0.66 | 40 | 1010.3 |
| 20260508021019 | 10 | 256 | 4.8 | 14.5 | 0.00 | 0.66 | 0.66 | 40 | 1010.2 |
| 20260508020516 | 11 | 252 | 0.0 | 8.0 | 0.00 | 0.66 | 0.66 | 39 | 1010.0 |
| 20260508020026 | 11 | 231 | 4.8 | 11.3 | 0.00 | 0.66 | 0.66 | 36 | 1010.2 |
| 20260508015015 | 11 | 237 | 3.2 | 12.9 | 0.00 | 0.66 | 0.66 | 36 | 1010.2 |
| 20260508014514 | 11 | 234 | 4.8 | 14.5 | 0.00 | 0.66 | 0.66 | 35 | 1010.1 |
| 20260508014017 | 11 | 257 | 3.2 | 14.5 | 0.00 | 0.66 | 0.66 | 36 | 1010.2 |
| 20260508013513 | 11 | 232 | 4.8 | 14.5 | 0.00 | 0.66 | 0.66 | 36 | 1010.2 |
| 20260508013013 | 12 | 274 | 3.2 | 14.5 | 0.00 | 0.66 | 0.66 | 35 | 1010.4 |
| 20260508012517 | 12 | 258 | 6.4 | 14.5 | 0.00 | 0.66 | 0.66 | 35 | 1010.2 |
| 20260508012014 | 12 | 267 | 3.2 | 14.5 | 0.00 | 0.66 | 0.66 | 35 | 1010.1 |
| 20260508011515 | 12 | 243 | 3.2 | 14.5 | 0.00 | 0.66 | 0.66 | 35 | 1010.1 |
| 20260508011012 | 12 | 255 | 3.2 | 12.9 | 0.00 | 0.66 | 0.66 | 35 | 1010.1 |
| 20260508010512 | 12 | 283 | 1.6 | 14.5 | 0.00 | 0.66 | 0.66 | 36 | 1009.9 |
| 20260508010012 | 12 | 250 | 6.4 | 11.3 | 0.00 | 0.66 | 0.66 | 36 | 1009.9 |
| 20260508005016 | 12 | 232 | 4.8 | 16.1 | 0.00 | 0.66 | 0.66 | 35 | 1009.9 |
| 20260508004515 | 12 | 224 | 3.2 | 16.1 | 0.00 | 0.66 | 0.66 | 34 | 1009.9 |
| 20260508004014 | 12 | 200 | 4.8 | 12.9 | 0.00 | 0.66 | 0.66 | 35 | 1009.9 |
| 20260508003515 | 12 | 203 | 3.2 | 11.3 | 0.00 | 0.66 | 0.66 | 36 | 1009.8 |
| 20260508003015 | 12 | 134 | 1.6 | 16.1 | 0.00 | 0.66 | 0.66 | 36 | 1009.8 |
| 20260508002514 | 12 | 246 | 1.6 | 17.7 | 0.00 | 0.66 | 0.66 | 36 | 1009.8 |
| 20260508002014 | 12 | 260 | 1.6 | 16.1 | 0.00 | 0.66 | 0.66 | 36 | 1009.7 |
| 20260508001533 | 12 | 205 | 3.2 | 16.1 | 0.00 | 0.66 | 0.66 | 36 | 1009.7 |
| 20260508001013 | 12 | 224 | 1.6 | 14.5 | 0.00 | 0.66 | 0.66 | 36 | 1009.8 |